Year,Month,Day,Hour,Minute,Value (Times are PST for temperature in C)
2007,06,27,06,44,12.30
2007,06,27,06,45,12.30
2007,06,27,06,46,12.30
2007,06,27,06,47,12.30
2007,06,27,06,48,12.30
2007,06,27,06,49,12.30
2007,06,27,06,50,12.30
2007,06,27,06,51,12.40
2007,06,27,06,52,12.40
2007,06,27,06,53,12.50
2007,06,27,06,54,12.50
2007,06,27,06,55,12.60
2007,06,27,06,56,12.60
2007,06,27,06,57,12.70
2007,06,27,06,58,12.80
2007,06,27,06,59,12.80
2007,06,27,07,00,12.80
2007,06,27,07,01,12.90
2007,06,27,07,02,13.00
2007,06,27,07,03,13.00
2007,06,27,07,04,13.10
2007,06,27,07,05,13.10
2007,06,27,07,06,13.20
2007,06,27,07,07,13.30
2007,06,27,07,08,13.30
2007,06,27,07,09,13.30
2007,06,27,07,10,13.30
2007,06,27,07,11,13.30
2007,06,27,07,12,13.40
2007,06,27,07,13,13.40
2007,06,27,07,14,13.40
2007,06,27,07,15,13.50
2007,06,27,07,16,13.50
2007,06,27,07,17,13.60
2007,06,27,07,18,13.60
2007,06,27,07,19,13.60
2007,06,27,07,20,13.70
2007,06,27,07,21,13.70
2007,06,27,07,22,13.70
2007,06,27,07,23,13.70
2007,06,27,07,24,13.70
2007,06,27,07,25,13.80
2007,06,27,07,26,13.80
2007,06,27,07,27,13.80
2007,06,27,07,28,13.90
2007,06,27,07,29,13.90
2007,06,27,07,30,13.90
2007,06,27,07,31,13.90
2007,06,27,07,32,13.90
2007,06,27,07,33,13.90
2007,06,27,07,34,14.00
2007,06,27,07,35,14.00
2007,06,27,07,36,14.00
2007,06,27,07,37,14.10
2007,06,27,07,38,14.10
2007,06,27,07,39,14.10
2007,06,27,07,40,14.20
2007,06,27,07,41,14.20
2007,06,27,07,42,14.20
2007,06,27,07,43,14.20
2007,06,27,07,44,14.30
2007,06,27,07,45,14.40
2007,06,27,07,46,14.40
2007,06,27,07,47,14.50
2007,06,27,07,48,14.60
2007,06,27,07,49,14.60
2007,06,27,07,50,14.70
2007,06,27,07,51,14.80
2007,06,27,07,52,14.80
2007,06,27,07,53,14.80
2007,06,27,07,54,14.90
2007,06,27,07,55,15.00
2007,06,27,07,56,15.00
2007,06,27,07,57,15.10
2007,06,27,07,58,15.10
2007,06,27,07,59,15.20
2007,06,27,08,00,15.30
2007,06,27,08,01,15.30
2007,06,27,08,02,15.40
2007,06,27,08,03,15.50
2007,06,27,08,04,15.50
2007,06,27,08,05,15.60
2007,06,27,08,06,15.60
2007,06,27,08,07,15.70
2007,06,27,08,08,15.70
2007,06,27,08,09,15.80
2007,06,27,08,10,15.80
2007,06,27,08,11,15.80
2007,06,27,08,12,15.90
2007,06,27,08,13,15.90
2007,06,27,08,14,16.00
2007,06,27,08,15,16.10
2007,06,27,08,16,16.10
2007,06,27,08,17,16.10
2007,06,27,08,18,16.10
2007,06,27,08,19,16.10
2007,06,27,08,20,16.20
2007,06,27,08,21,16.20
2007,06,27,08,22,16.20
2007,06,27,08,23,16.20
2007,06,27,08,24,16.20
2007,06,27,08,25,16.20
2007,06,27,08,26,16.30
2007,06,27,08,27,16.30
2007,06,27,08,28,16.30
2007,06,27,08,29,16.30
2007,06,27,08,30,16.30
2007,06,27,08,31,16.30
2007,06,27,08,32,16.30
2007,06,27,08,33,16.30
2007,06,27,08,34,16.30
2007,06,27,08,35,16.40
2007,06,27,08,36,16.40
2007,06,27,08,37,16.40
2007,06,27,08,38,16.40
2007,06,27,08,39,16.40
2007,06,27,08,40,16.40
2007,06,27,08,41,16.50
2007,06,27,08,42,16.60
2007,06,27,08,43,16.60
2007,06,27,08,44,16.70
2007,06,27,08,45,16.70
2007,06,27,08,46,16.70
2007,06,27,08,47,16.80
2007,06,27,08,48,16.80
2007,06,27,08,49,16.90
2007,06,27,08,50,16.90
2007,06,27,08,51,17.00
2007,06,27,08,52,17.00
2007,06,27,08,53,17.00
2007,06,27,08,54,17.00
2007,06,27,08,55,17.00
2007,06,27,08,56,17.00
2007,06,27,08,57,17.00
2007,06,27,08,58,17.00
2007,06,27,08,59,17.10
2007,06,27,09,00,17.10
2007,06,27,09,01,17.10
2007,06,27,09,02,17.10
2007,06,27,09,03,17.20
2007,06,27,09,04,17.20
2007,06,27,09,05,17.10
2007,06,27,09,06,17.10
2007,06,27,09,07,17.10
2007,06,27,09,08,17.10
2007,06,27,09,09,17.10
2007,06,27,09,10,17.10
2007,06,27,09,11,17.10
2007,06,27,09,12,17.10
2007,06,27,09,13,17.10
2007,06,27,09,14,17.10
2007,06,27,09,15,17.10
2007,06,27,09,16,17.10
2007,06,27,09,17,17.10
2007,06,27,09,18,17.10
2007,06,27,09,19,17.10
2007,06,27,09,20,17.10
2007,06,27,09,21,17.10
2007,06,27,09,22,17.10
2007,06,27,09,23,17.10
2007,06,27,09,24,17.10
2007,06,27,09,25,17.10
2007,06,27,09,26,17.10
2007,06,27,09,27,17.10
2007,06,27,09,28,17.10
2007,06,27,09,29,17.20
2007,06,27,09,30,17.20
2007,06,27,09,31,17.20
2007,06,27,09,32,17.20
2007,06,27,09,33,17.20
2007,06,27,09,34,17.30
2007,06,27,09,35,17.30
2007,06,27,09,36,17.30
2007,06,27,09,37,17.30
2007,06,27,09,38,17.30
2007,06,27,09,39,17.30
2007,06,27,09,40,17.30
2007,06,27,09,41,17.30
2007,06,27,09,42,17.30
2007,06,27,09,43,17.30
2007,06,27,09,44,17.30
2007,06,27,09,45,17.30
2007,06,27,09,46,17.30
2007,06,27,09,47,17.30
2007,06,27,09,48,17.30
2007,06,27,09,49,17.40
2007,06,27,09,50,17.40
2007,06,27,09,51,17.50
2007,06,27,09,52,17.50
2007,06,27,09,53,17.60
2007,06,27,09,54,17.70
2007,06,27,09,55,17.80
2007,06,27,09,56,17.90
2007,06,27,09,57,17.90
2007,06,27,09,58,18.00
2007,06,27,09,59,18.10
2007,06,27,10,00,18.20
2007,06,27,10,01,18.20
2007,06,27,10,02,18.20
2007,06,27,10,03,18.30
2007,06,27,10,04,18.40
2007,06,27,10,05,18.50
2007,06,27,10,06,18.60
2007,06,27,10,07,18.60
2007,06,27,10,08,18.70
2007,06,27,10,09,18.80
2007,06,27,10,10,18.80
2007,06,27,10,11,18.80
2007,06,27,10,12,18.90
2007,06,27,10,13,18.90
2007,06,27,10,14,18.90
2007,06,27,10,15,18.90
2007,06,27,10,16,19.10
2007,06,27,10,17,19.10
2007,06,27,10,18,19.10
2007,06,27,10,19,19.10
2007,06,27,10,20,19.10
2007,06,27,10,21,19.10
2007,06,27,10,22,19.10
2007,06,27,10,23,19.10
2007,06,27,10,24,19.20
2007,06,27,10,25,19.20
2007,06,27,10,26,19.30
2007,06,27,10,27,19.20
2007,06,27,10,28,19.20
2007,06,27,10,29,19.10
2007,06,27,10,30,19.10
2007,06,27,10,31,19.10
2007,06,27,10,32,19.10
2007,06,27,10,33,19.20
2007,06,27,10,34,19.20
2007,06,27,10,35,19.30
2007,06,27,10,36,19.30
2007,06,27,10,37,19.40
2007,06,27,10,38,19.50
2007,06,27,10,39,19.50
2007,06,27,10,40,19.40
2007,06,27,10,41,19.30
2007,06,27,10,42,19.20
2007,06,27,10,43,19.10
2007,06,27,10,44,19.00
2007,06,27,10,45,18.90
2007,06,27,10,46,18.90
2007,06,27,10,47,19.00
2007,06,27,10,48,19.10
2007,06,27,10,49,19.10
2007,06,27,10,50,19.20
2007,06,27,10,51,19.20
2007,06,27,10,52,19.20
2007,06,27,10,53,19.20
2007,06,27,10,54,19.20
2007,06,27,10,55,19.00
2007,06,27,10,56,18.90
2007,06,27,10,57,18.90
2007,06,27,10,58,18.90
2007,06,27,10,59,18.90
2007,06,27,11,00,18.80
2007,06,27,11,01,18.70
2007,06,27,11,02,18.60
2007,06,27,11,03,18.60
2007,06,27,11,04,18.60
2007,06,27,11,05,18.50
2007,06,27,11,06,18.50
2007,06,27,11,07,18.50
2007,06,27,11,08,18.50
2007,06,27,11,09,18.50
2007,06,27,11,10,18.60
2007,06,27,11,11,18.70
2007,06,27,11,12,18.80
2007,06,27,11,13,18.90
2007,06,27,11,14,18.90
2007,06,27,11,15,19.00
2007,06,27,11,16,19.10
2007,06,27,11,17,19.10
2007,06,27,11,18,19.10
2007,06,27,11,19,19.20
2007,06,27,11,20,19.20
2007,06,27,11,21,19.30
2007,06,27,11,22,19.40
2007,06,27,11,23,19.40
2007,06,27,11,24,19.40
2007,06,27,11,25,19.40
2007,06,27,11,26,19.40
2007,06,27,11,27,19.30
2007,06,27,11,28,19.30
2007,06,27,11,29,19.20
2007,06,27,11,30,19.10
2007,06,27,11,31,19.10
2007,06,27,11,32,19.10
2007,06,27,11,33,19.10
2007,06,27,11,34,19.10
2007,06,27,11,35,19.10
2007,06,27,11,36,19.10
2007,06,27,11,37,19.10
2007,06,27,11,38,19.10
2007,06,27,11,39,19.20
2007,06,27,11,40,19.30
2007,06,27,11,41,19.30
2007,06,27,11,42,19.30
2007,06,27,11,43,19.20
2007,06,27,11,44,19.20
2007,06,27,11,45,19.20
2007,06,27,11,46,19.30
2007,06,27,11,47,19.30
2007,06,27,11,48,19.30
2007,06,27,11,49,19.10
2007,06,27,11,50,19.00
2007,06,27,11,51,18.80
2007,06,27,11,52,18.80
2007,06,27,11,53,18.70
2007,06,27,11,54,18.70
2007,06,27,11,55,18.70
2007,06,27,11,56,18.80
2007,06,27,11,57,18.90
2007,06,27,11,58,18.90
2007,06,27,11,59,19.00
2007,06,27,12,00,19.10
2007,06,27,12,01,19.10
2007,06,27,12,02,19.10
2007,06,27,12,03,19.20
2007,06,27,12,04,19.20
2007,06,27,12,05,19.20
2007,06,27,12,06,19.20
2007,06,27,12,07,19.20
2007,06,27,12,08,19.30
2007,06,27,12,09,19.30
2007,06,27,12,10,19.40
2007,06,27,12,11,19.30
2007,06,27,12,12,19.20
2007,06,27,12,13,19.20
2007,06,27,12,14,19.10
2007,06,27,12,15,19.10
2007,06,27,12,16,19.10
2007,06,27,12,17,19.10
2007,06,27,12,18,19.10
2007,06,27,12,19,19.10
2007,06,27,12,20,19.10
2007,06,27,12,21,19.20
2007,06,27,12,22,19.20
2007,06,27,12,23,19.30
2007,06,27,12,24,19.30
2007,06,27,12,25,19.30
2007,06,27,12,26,19.30
2007,06,27,12,27,19.30
2007,06,27,12,28,19.30
2007,06,27,12,29,19.30
2007,06,27,12,30,19.10
2007,06,27,12,31,19.00
2007,06,27,12,32,18.90
2007,06,27,12,33,18.80
2007,06,27,12,34,18.70
2007,06,27,12,35,18.70
2007,06,27,12,36,18.60
2007,06,27,12,37,18.60
2007,06,27,12,38,18.60
2007,06,27,12,39,18.70
2007,06,27,12,40,18.80
2007,06,27,12,41,18.90
2007,06,27,12,42,18.90
2007,06,27,12,43,18.90
2007,06,27,12,44,18.90
2007,06,27,12,45,18.90
2007,06,27,12,46,18.90
2007,06,27,12,47,19.00
2007,06,27,12,48,19.10
2007,06,27,12,49,19.20
2007,06,27,12,50,19.30
2007,06,27,12,51,19.30
2007,06,27,12,52,19.30
2007,06,27,12,53,19.30
2007,06,27,12,54,19.30
2007,06,27,12,55,19.40
2007,06,27,12,56,19.40
2007,06,27,12,57,19.30
2007,06,27,12,58,19.30
2007,06,27,12,59,19.30
2007,06,27,13,00,19.40
2007,06,27,13,01,19.40
2007,06,27,13,02,19.50
2007,06,27,13,03,19.60
2007,06,27,13,04,19.70
2007,06,27,13,05,19.70
2007,06,27,13,06,19.60
2007,06,27,13,07,19.50
2007,06,27,13,08,19.50
2007,06,27,13,09,19.50
2007,06,27,13,10,19.50
2007,06,27,13,11,19.50
2007,06,27,13,12,19.50
2007,06,27,13,13,19.40
2007,06,27,13,14,19.30
2007,06,27,13,15,19.20
2007,06,27,13,16,19.10
2007,06,27,13,17,19.10
2007,06,27,13,18,19.20
2007,06,27,13,19,19.30
2007,06,27,13,20,19.40
2007,06,27,13,21,19.50
2007,06,27,13,22,19.50
2007,06,27,13,23,19.60
2007,06,27,13,24,19.60
2007,06,27,13,25,19.60
2007,06,27,13,26,19.70
2007,06,27,13,27,19.70
2007,06,27,13,28,19.80
2007,06,27,13,29,19.80
2007,06,27,13,30,19.90
2007,06,27,13,31,19.90
2007,06,27,13,32,19.90
2007,06,27,13,33,20.00
2007,06,27,13,34,20.10
2007,06,27,13,35,20.10
2007,06,27,13,36,20.10
2007,06,27,13,37,20.20
2007,06,27,13,38,20.30
2007,06,27,13,39,20.40
2007,06,27,13,40,20.50
2007,06,27,13,41,20.60
2007,06,27,13,42,20.60
2007,06,27,13,43,20.60
2007,06,27,13,44,20.60
2007,06,27,13,45,20.60
2007,06,27,13,46,20.50
2007,06,27,13,47,20.40
2007,06,27,13,48,20.20
2007,06,27,13,49,20.20
2007,06,27,13,50,20.10
2007,06,27,13,51,20.10
2007,06,27,13,52,20.10
2007,06,27,13,53,20.10
2007,06,27,13,54,20.00
2007,06,27,13,55,19.90
2007,06,27,13,56,19.90
2007,06,27,13,57,19.90
2007,06,27,13,58,19.90
2007,06,27,13,59,19.90
2007,06,27,14,00,19.80
2007,06,27,14,01,19.80
2007,06,27,14,02,19.80
2007,06,27,14,03,19.80
2007,06,27,14,04,19.80
2007,06,27,14,05,19.80
2007,06,27,14,06,19.80
2007,06,27,14,07,19.80
2007,06,27,14,08,19.80
2007,06,27,14,09,19.80
2007,06,27,14,10,19.80
2007,06,27,14,11,19.70
2007,06,27,14,12,19.70
2007,06,27,14,13,19.80
2007,06,27,14,14,19.80
2007,06,27,14,15,19.80
2007,06,27,14,16,19.90
2007,06,27,14,17,19.90
2007,06,27,14,18,20.00
2007,06,27,14,19,20.10
2007,06,27,14,20,20.10
2007,06,27,14,21,20.10
2007,06,27,14,22,20.20
2007,06,27,14,23,20.30
2007,06,27,14,24,20.40
2007,06,27,14,25,20.50
2007,06,27,14,26,20.60
2007,06,27,14,27,20.60
2007,06,27,14,28,20.70
2007,06,27,14,29,20.80
2007,06,27,14,30,20.90
2007,06,27,14,31,20.90
2007,06,27,14,32,20.80
2007,06,27,14,33,20.70
2007,06,27,14,34,20.60
2007,06,27,14,35,20.50
2007,06,27,14,36,20.60
2007,06,27,14,37,20.60
2007,06,27,14,38,20.60
2007,06,27,14,39,20.70
2007,06,27,14,40,20.80
2007,06,27,14,41,20.90
2007,06,27,14,42,21.00
2007,06,27,14,43,21.10
2007,06,27,14,44,21.10
2007,06,27,14,45,21.20
2007,06,27,14,46,21.30
2007,06,27,14,47,21.30
2007,06,27,14,48,21.40
2007,06,27,14,49,21.50
2007,06,27,14,50,21.60
2007,06,27,14,51,21.60
2007,06,27,14,52,21.70
2007,06,27,14,53,21.70
2007,06,27,14,54,21.80
2007,06,27,14,55,21.90
2007,06,27,14,56,21.90
2007,06,27,14,57,21.80
2007,06,27,14,58,21.70
2007,06,27,14,59,21.60
2007,06,27,15,00,21.50
2007,06,27,15,01,21.40
2007,06,27,15,02,21.30
2007,06,27,15,03,21.30
2007,06,27,15,04,21.30
2007,06,27,15,05,21.30
2007,06,27,15,06,21.30
2007,06,27,15,07,21.40
2007,06,27,15,08,21.50
2007,06,27,15,09,21.60
2007,06,27,15,10,21.60
2007,06,27,15,11,21.60
2007,06,27,15,12,21.60
2007,06,27,15,13,21.60
2007,06,27,15,14,21.40
2007,06,27,15,15,21.30
2007,06,27,15,16,21.30
2007,06,27,15,17,21.30
2007,06,27,15,18,21.40
2007,06,27,15,19,21.50
2007,06,27,15,20,21.60
2007,06,27,15,21,21.70
2007,06,27,15,22,21.80
2007,06,27,15,23,21.80
2007,06,27,15,24,21.70
2007,06,27,15,25,21.60
2007,06,27,15,26,21.60
2007,06,27,15,27,21.60
2007,06,27,15,28,21.50
2007,06,27,15,29,21.40
2007,06,27,15,30,21.30
2007,06,27,15,31,21.10
2007,06,27,15,32,20.90
2007,06,27,15,33,20.80
2007,06,27,15,34,20.70
2007,06,27,15,35,20.60
2007,06,27,15,36,20.50
2007,06,27,15,37,20.60
2007,06,27,15,38,20.60
2007,06,27,15,39,20.50
2007,06,27,15,40,20.50
2007,06,27,15,41,20.50
2007,06,27,15,42,20.60
2007,06,27,15,43,20.80
2007,06,27,15,44,20.90
2007,06,27,15,45,21.00
2007,06,27,15,46,21.10
2007,06,27,15,47,21.30
2007,06,27,15,48,21.30
2007,06,27,15,49,21.30
2007,06,27,15,50,21.20
2007,06,27,15,51,21.00
2007,06,27,15,52,20.80
2007,06,27,15,53,20.60
2007,06,27,15,54,20.50
2007,06,27,15,55,20.50
2007,06,27,15,56,20.50
2007,06,27,15,57,20.40
2007,06,27,15,58,20.30
2007,06,27,15,59,20.40
2007,06,27,16,00,20.50
2007,06,27,16,01,20.70
2007,06,27,16,02,20.70
2007,06,27,16,03,20.80
2007,06,27,16,04,20.90
2007,06,27,16,05,21.00
2007,06,27,16,06,21.00
2007,06,27,16,07,21.00
2007,06,27,16,08,21.10
2007,06,27,16,09,21.10
2007,06,27,16,10,21.20
2007,06,27,16,11,21.20
2007,06,27,16,12,21.20
2007,06,27,16,13,21.30
2007,06,27,16,14,21.30
2007,06,27,16,15,21.30
2007,06,27,16,16,21.30
2007,06,27,16,17,21.30
2007,06,27,16,18,21.30
2007,06,27,16,19,21.20
2007,06,27,16,20,21.20
2007,06,27,16,21,21.20
2007,06,27,16,22,21.20
2007,06,27,16,23,21.00
2007,06,27,16,24,21.00
2007,06,27,16,25,21.00
2007,06,27,16,26,21.10
2007,06,27,16,27,21.10
2007,06,27,16,28,21.10
2007,06,27,16,29,21.00
2007,06,27,16,30,21.00
2007,06,27,16,31,21.00
2007,06,27,16,32,21.00
2007,06,27,16,33,21.00
2007,06,27,16,34,20.90
2007,06,27,16,35,20.90
2007,06,27,16,36,21.00
2007,06,27,16,37,21.10
2007,06,27,16,38,21.10
2007,06,27,16,39,21.10
2007,06,27,16,40,21.00
2007,06,27,16,41,21.00
2007,06,27,16,42,21.00
2007,06,27,16,43,21.00
2007,06,27,16,44,21.00
2007,06,27,16,45,21.00
2007,06,27,16,46,21.00
2007,06,27,16,47,21.10
2007,06,27,16,48,21.10
2007,06,27,16,49,21.10
2007,06,27,16,50,21.20
2007,06,27,16,51,21.30
2007,06,27,16,52,21.30
2007,06,27,16,53,21.30
2007,06,27,16,54,21.30
2007,06,27,16,55,21.30
2007,06,27,16,56,21.40
2007,06,27,16,57,21.40
2007,06,27,16,58,21.60
2007,06,27,16,59,21.50
2007,06,27,17,00,21.30
2007,06,27,17,01,21.30
2007,06,27,17,02,21.30
2007,06,27,17,03,21.30
2007,06,27,17,04,21.30
2007,06,27,17,05,21.30
2007,06,27,17,06,21.30
2007,06,27,17,07,21.30
2007,06,27,17,08,21.30
2007,06,27,17,09,21.30
2007,06,27,17,10,21.30
2007,06,27,17,11,21.30
2007,06,27,17,12,21.30
2007,06,27,17,13,21.40
2007,06,27,17,14,21.40
2007,06,27,17,15,21.40
2007,06,27,17,16,21.40
2007,06,27,17,17,21.40
2007,06,27,17,18,21.30
2007,06,27,17,19,21.30
2007,06,27,17,20,21.30
2007,06,27,17,21,21.40
2007,06,27,17,22,21.40
2007,06,27,17,23,21.50
2007,06,27,17,24,21.60
2007,06,27,17,25,21.60
2007,06,27,17,26,21.60
2007,06,27,17,27,21.60
2007,06,27,17,28,21.60
2007,06,27,17,29,21.60
2007,06,27,17,30,21.60
2007,06,27,17,31,21.60
2007,06,27,17,32,21.60
2007,06,27,17,33,21.60
2007,06,27,17,34,21.60
2007,06,27,17,35,21.50
2007,06,27,17,36,21.40
2007,06,27,17,37,21.30
2007,06,27,17,38,21.30
2007,06,27,17,39,21.30
2007,06,27,17,40,21.20
2007,06,27,17,41,21.10
2007,06,27,17,42,21.00
2007,06,27,17,43,20.90
2007,06,27,17,44,20.80
2007,06,27,17,45,20.70
2007,06,27,17,46,20.50
2007,06,27,17,47,20.40
2007,06,27,17,48,20.40
2007,06,27,17,49,20.30
2007,06,27,17,50,20.20
2007,06,27,17,51,20.30
2007,06,27,17,52,20.30
2007,06,27,17,53,20.30
2007,06,27,17,54,20.30
2007,06,27,17,55,20.20
2007,06,27,17,56,20.20
2007,06,27,17,57,20.20
2007,06,27,17,58,20.20
2007,06,27,17,59,20.10
2007,06,27,18,00,20.10
2007,06,27,18,01,20.10
2007,06,27,18,02,20.10
2007,06,27,18,03,20.10
2007,06,27,18,04,20.10
2007,06,27,18,05,20.10
2007,06,27,18,06,20.10
2007,06,27,18,07,20.10
2007,06,27,18,08,19.90
2007,06,27,18,09,19.90
2007,06,27,18,10,19.90
2007,06,27,18,11,19.90
2007,06,27,18,12,19.90
2007,06,27,18,13,19.90
2007,06,27,18,14,19.90
2007,06,27,18,15,19.90
2007,06,27,18,16,19.90
2007,06,27,18,17,19.80
2007,06,27,18,18,19.80
2007,06,27,18,19,19.70
2007,06,27,18,20,19.70
2007,06,27,18,21,19.60
2007,06,27,18,22,19.50
2007,06,27,18,23,19.50
2007,06,27,18,24,19.40
2007,06,27,18,25,19.40
2007,06,27,18,26,19.30
2007,06,27,18,27,19.30
2007,06,27,18,28,19.20
2007,06,27,18,29,19.10
2007,06,27,18,30,19.10
2007,06,27,18,31,18.90
2007,06,27,18,32,18.90
2007,06,27,18,33,18.90
2007,06,27,18,34,18.80
2007,06,27,18,35,18.80
2007,06,27,18,36,18.80
2007,06,27,18,37,18.80
2007,06,27,18,38,18.70
2007,06,27,18,39,18.70
2007,06,27,18,40,18.70
2007,06,27,18,41,18.70
2007,06,27,18,42,18.70
2007,06,27,18,43,18.70
2007,06,27,18,44,18.70
2007,06,27,18,45,18.70
2007,06,27,18,46,18.70
2007,06,27,18,47,18.70
2007,06,27,18,48,18.60
2007,06,27,18,49,18.60
2007,06,27,18,50,18.60
2007,06,27,18,51,18.60
2007,06,27,18,52,18.60
2007,06,27,18,53,18.60
2007,06,27,18,54,18.60
2007,06,27,18,55,18.60
2007,06,27,18,56,18.60
2007,06,27,18,57,18.60
2007,06,27,18,58,18.60
2007,06,27,18,59,18.60
2007,06,27,19,00,18.60
2007,06,27,19,01,18.50
2007,06,27,19,02,18.50
2007,06,27,19,03,18.40
2007,06,27,19,04,18.40
2007,06,27,19,05,18.40
2007,06,27,19,06,18.40
2007,06,27,19,07,18.40
2007,06,27,19,08,18.40
2007,06,27,19,09,18.40
2007,06,27,19,10,18.40
2007,06,27,19,11,18.40
2007,06,27,19,12,18.40
2007,06,27,19,13,18.40
2007,06,27,19,14,18.40
2007,06,27,19,15,18.30
2007,06,27,19,16,18.30
2007,06,27,19,17,18.30
2007,06,27,19,18,18.30
2007,06,27,19,19,18.20
2007,06,27,19,20,18.20
2007,06,27,19,21,18.20
2007,06,27,19,22,18.20
2007,06,27,19,23,18.20
2007,06,27,19,24,18.20
2007,06,27,19,25,18.20
2007,06,27,19,26,18.20
2007,06,27,19,27,18.20
2007,06,27,19,28,18.20
2007,06,27,19,29,18.20
2007,06,27,19,30,18.10
2007,06,27,19,31,18.10
2007,06,27,19,32,18.10
2007,06,27,19,33,18.10
2007,06,27,19,34,18.10
2007,06,27,19,35,18.10
2007,06,27,19,36,18.10
2007,06,27,19,37,18.10
2007,06,27,19,38,18.20
2007,06,27,19,39,18.20
2007,06,27,19,40,18.20
2007,06,27,19,41,18.20
2007,06,27,19,42,18.20
2007,06,27,19,43,18.20
2007,06,27,19,44,18.20
2007,06,27,19,45,18.20
2007,06,27,19,46,18.20
2007,06,27,19,47,18.20
2007,06,27,19,48,18.20
2007,06,27,19,49,18.20
2007,06,27,19,50,18.20
2007,06,27,19,51,18.20
2007,06,27,19,52,18.20
2007,06,27,19,53,18.20
2007,06,27,19,54,18.20
2007,06,27,19,55,18.20
2007,06,27,19,56,18.20
2007,06,27,19,57,18.20
2007,06,27,19,58,18.20
2007,06,27,19,59,18.20
2007,06,27,20,00,18.20
2007,06,27,20,01,18.20
2007,06,27,20,02,18.10
2007,06,27,20,03,18.10
2007,06,27,20,04,18.10
2007,06,27,20,05,18.10
2007,06,27,20,06,18.10
2007,06,27,20,07,18.10
2007,06,27,20,08,18.00
2007,06,27,20,09,17.90
2007,06,27,20,10,17.90
2007,06,27,20,11,17.90
2007,06,27,20,12,17.90
2007,06,27,20,13,17.90
2007,06,27,20,14,17.90
2007,06,27,20,15,17.90
2007,06,27,20,16,17.90
2007,06,27,20,17,17.90
2007,06,27,20,18,17.90
2007,06,27,20,19,17.90
2007,06,27,20,20,17.90
2007,06,27,20,21,17.90
2007,06,27,20,22,17.90
2007,06,27,20,23,17.90
2007,06,27,20,24,17.90
2007,06,27,20,25,17.90
2007,06,27,20,26,17.90
2007,06,27,20,27,17.90
2007,06,27,20,28,17.80
2007,06,27,20,29,17.80
2007,06,27,20,30,17.80
2007,06,27,20,31,17.80
2007,06,27,20,32,17.80
2007,06,27,20,33,17.80
2007,06,27,20,34,17.80
2007,06,27,20,35,17.80
2007,06,27,20,36,17.80
2007,06,27,20,37,17.80
2007,06,27,20,38,17.80
2007,06,27,20,39,17.80
2007,06,27,20,40,17.80
2007,06,27,20,41,17.80
2007,06,27,20,42,17.80
2007,06,27,20,43,17.80
2007,06,27,20,44,17.80
2007,06,27,20,45,17.70
2007,06,27,20,46,17.70
2007,06,27,20,47,17.70
2007,06,27,20,48,17.70
2007,06,27,20,49,17.60
2007,06,27,20,50,17.60
2007,06,27,20,51,17.60
2007,06,27,20,52,17.50
2007,06,27,20,53,17.50
2007,06,27,20,54,17.50
2007,06,27,20,55,17.40
2007,06,27,20,56,17.40
2007,06,27,20,57,17.40
2007,06,27,20,58,17.40
2007,06,27,20,59,17.40
2007,06,27,21,00,17.30
2007,06,27,21,01,17.30
2007,06,27,21,02,17.30
2007,06,27,21,03,17.30
2007,06,27,21,04,17.30
2007,06,27,21,05,17.30
2007,06,27,21,06,17.30
2007,06,27,21,07,17.30
2007,06,27,21,08,17.30
2007,06,27,21,09,17.30
2007,06,27,21,10,17.30
2007,06,27,21,11,17.30
2007,06,27,21,12,17.30
2007,06,27,21,13,17.30
2007,06,27,21,14,17.20
2007,06,27,21,15,17.20
2007,06,27,21,16,17.20
2007,06,27,21,17,17.20
2007,06,27,21,18,17.20
2007,06,27,21,19,17.10
2007,06,27,21,20,17.10
2007,06,27,21,21,17.10
2007,06,27,21,22,17.10
2007,06,27,21,23,17.10
2007,06,27,21,24,17.00
2007,06,27,21,25,17.00
2007,06,27,21,26,17.00
2007,06,27,21,27,17.00
2007,06,27,21,28,17.00
2007,06,27,21,29,17.00
2007,06,27,21,30,17.00
2007,06,27,21,31,16.90
2007,06,27,21,32,16.90
2007,06,27,21,33,16.90
2007,06,27,21,34,16.90
2007,06,27,21,35,16.90
2007,06,27,21,36,16.90
2007,06,27,21,37,16.90
2007,06,27,21,38,16.90
2007,06,27,21,39,16.90
2007,06,27,21,40,16.80
2007,06,27,21,41,16.80
2007,06,27,21,42,16.80
2007,06,27,21,43,16.80
2007,06,27,21,44,16.80
2007,06,27,21,45,16.80
2007,06,27,21,46,16.80
2007,06,27,21,47,16.80
2007,06,27,21,48,16.70
2007,06,27,21,49,16.70
2007,06,27,21,50,16.70
2007,06,27,21,51,16.70
2007,06,27,21,52,16.70
2007,06,27,21,53,16.70
2007,06,27,21,54,16.70
2007,06,27,21,55,16.70
2007,06,27,21,56,16.70
2007,06,27,21,57,16.70
2007,06,27,21,58,16.70
2007,06,27,21,59,16.70
2007,06,27,22,00,16.60
2007,06,27,22,01,16.60
2007,06,27,22,02,16.60
2007,06,27,22,03,16.60
2007,06,27,22,04,16.60
2007,06,27,22,05,16.60
2007,06,27,22,06,16.60
2007,06,27,22,07,16.60
2007,06,27,22,08,16.60
2007,06,27,22,09,16.60
2007,06,27,22,10,16.60
2007,06,27,22,11,16.60
2007,06,27,22,12,16.60
2007,06,27,22,13,16.60
2007,06,27,22,14,16.40
2007,06,27,22,15,16.40
2007,06,27,22,16,16.40
2007,06,27,22,17,16.40
2007,06,27,22,18,16.40
2007,06,27,22,19,16.40
2007,06,27,22,20,16.40
2007,06,27,22,21,16.40
2007,06,27,22,22,16.40
2007,06,27,22,23,16.40
2007,06,27,22,24,16.40
2007,06,27,22,25,16.40
2007,06,27,22,26,16.40
2007,06,27,22,27,16.40
2007,06,27,22,28,16.40
2007,06,27,22,29,16.40
2007,06,27,22,30,16.40
2007,06,27,22,31,16.40
2007,06,27,22,32,16.30
2007,06,27,22,33,16.30
2007,06,27,22,34,16.30
2007,06,27,22,35,16.30
2007,06,27,22,36,16.30
2007,06,27,22,37,16.30
2007,06,27,22,38,16.30
2007,06,27,22,39,16.30
2007,06,27,22,40,16.30
2007,06,27,22,41,16.30
2007,06,27,22,42,16.30
2007,06,27,22,43,16.30
2007,06,27,22,44,16.30
2007,06,27,22,45,16.30
2007,06,27,22,46,16.30
2007,06,27,22,47,16.30
2007,06,27,22,48,16.30
2007,06,27,22,49,16.20
2007,06,27,22,50,16.20
2007,06,27,22,51,16.20
2007,06,27,22,52,16.20
2007,06,27,22,53,16.20
2007,06,27,22,54,16.20
2007,06,27,22,55,16.20
2007,06,27,22,56,16.20
2007,06,27,22,57,16.20
2007,06,27,22,58,16.10
2007,06,27,22,59,16.10
2007,06,27,23,00,16.10
2007,06,27,23,01,16.10
2007,06,27,23,02,16.10
2007,06,27,23,03,16.10
2007,06,27,23,04,16.10
2007,06,27,23,05,16.10
2007,06,27,23,06,16.10
2007,06,27,23,07,16.10
2007,06,27,23,08,16.10
2007,06,27,23,09,16.10
2007,06,27,23,10,16.10
2007,06,27,23,11,16.10
2007,06,27,23,12,16.10
2007,06,27,23,13,16.10
2007,06,27,23,14,16.10
2007,06,27,23,15,16.10
2007,06,27,23,16,16.10
2007,06,27,23,17,16.10
2007,06,27,23,18,16.10
2007,06,27,23,19,16.10
2007,06,27,23,20,16.00
2007,06,27,23,21,15.90
2007,06,27,23,22,15.90
2007,06,27,23,23,15.90
2007,06,27,23,24,15.90
2007,06,27,23,25,15.90
2007,06,27,23,26,15.80
2007,06,27,23,27,15.80
2007,06,27,23,28,15.80
2007,06,27,23,29,15.80
2007,06,27,23,30,15.80
2007,06,27,23,31,15.80
2007,06,27,23,32,15.80
2007,06,27,23,33,15.80
2007,06,27,23,34,15.80
2007,06,27,23,35,15.80
2007,06,27,23,36,15.80
2007,06,27,23,37,15.80
2007,06,27,23,38,15.80
2007,06,27,23,39,15.80
2007,06,27,23,40,15.80
2007,06,27,23,41,15.80
2007,06,27,23,42,15.80
2007,06,27,23,43,15.80
2007,06,27,23,44,15.80
2007,06,27,23,45,15.80
2007,06,27,23,46,15.80
2007,06,27,23,47,15.80
2007,06,27,23,48,15.80
2007,06,27,23,49,15.80
2007,06,27,23,50,15.80
2007,06,27,23,51,15.80
2007,06,27,23,52,15.80
2007,06,27,23,53,15.80
2007,06,27,23,54,15.80
2007,06,27,23,55,15.80
2007,06,27,23,56,15.80
2007,06,27,23,57,15.80
2007,06,27,23,58,15.80
2007,06,27,23,59,15.80
